TimeCDT,TemperatureF,Dew PointF,Humidity,Sea Level PressureIn,VisibilityMPH,Wind Direction,Wind SpeedMPH,Gust SpeedMPH,PrecipitationIn,Events,Conditions,WindDirDegrees,DateUTC
12:52 AM,72.0,69.1,91,29.96,-9999.0,North,5.8,-,N/A,,Unknown,10,2013-08-03 05:52:00
1:52 AM,73.0,68.0,84,29.97,-9999.0,NNE,5.8,-,N/A,,Unknown,20,2013-08-03 06:52:00
2:52 AM,70.0,63.0,78,29.96,-9999.0,NNE,6.9,-,N/A,,Unknown,20,2013-08-03 07:52:00
3:52 AM,69.1,61.0,75,29.96,-9999.0,NNE,5.8,-,N/A,,Unknown,20,2013-08-03 08:52:00
4:52 AM,66.9,61.0,81,29.97,-9999.0,North,3.5,-,N/A,,Unknown,10,2013-08-03 09:52:00
5:52 AM,66.9,60.1,79,30.02,-9999.0,Calm,Calm,-,N/A,,Unknown,0,2013-08-03 10:52:00
6:52 AM,66.0,60.1,81,30.01,-9999.0,North,8.1,-,N/A,,Unknown,10,2013-08-03 11:52:00
7:52 AM,69.1,61.0,75,30.04,-9999.0,NNE,5.8,-,N/A,,Unknown,20,2013-08-03 12:52:00
8:52 AM,71.1,61.0,70,30.06,-9999.0,ENE,4.6,-,N/A,,Unknown,60,2013-08-03 13:52:00
9:52 AM,73.9,62.1,66,30.07,-9999.0,ENE,6.9,-,N/A,,Unknown,60,2013-08-03 14:52:00
10:52 AM,77.0,63.0,62,30.08,-9999.0,NNE,4.6,-,N/A,,Unknown,30,2013-08-03 15:52:00
11:52 AM,78.1,63.0,60,30.09,-9999.0,Calm,Calm,-,N/A,,Unknown,0,2013-08-03 16:52:00
12:52 PM,80.1,64.9,60,30.09,-9999.0,East,4.6,-,N/A,,Unknown,90,2013-08-03 17:52:00
1:52 PM,82.9,64.0,53,30.07,-9999.0,Calm,Calm,-,N/A,,Unknown,0,2013-08-03 18:52:00
2:52 PM,84.0,66.0,55,30.07,-9999.0,Variable,3.5,-,N/A,,Unknown,0,2013-08-03 19:52:00
3:52 PM,86.0,63.0,46,30.06,-9999.0,North,5.8,-,N/A,,Unknown,350,2013-08-03 20:52:00
4:52 PM,86.0,62.1,44,30.06,-9999.0,NNE,5.8,-,N/A,,Unknown,30,2013-08-03 21:52:00
5:52 PM,86.0,62.1,44,30.05,-9999.0,NNE,10.4,-,N/A,,Unknown,30,2013-08-03 22:52:00
6:52 PM,84.0,61.0,46,30.06,-9999.0,NNE,5.8,-,N/A,,Unknown,30,2013-08-03 23:52:00
7:52 PM,79.0,62.1,56,30.06,-9999.0,NE,4.6,-,N/A,,Unknown,40,2013-08-04 00:52:00
8:52 PM,73.9,61.0,64,30.08,-9999.0,Calm,Calm,-,N/A,,Unknown,0,2013-08-04 01:52:00
9:52 PM,73.0,60.1,64,30.12,-9999.0,Calm,Calm,-,N/A,,Unknown,0,2013-08-04 02:52:00
10:52 PM,71.1,60.1,68,30.14,-9999.0,Calm,Calm,-,N/A,,Unknown,0,2013-08-04 03:52:00
11:52 PM,70.0,59.0,68,30.15,-9999.0,NNE,4.6,-,N/A,,Unknown,30,2013-08-04 04:52:00